Home > Weather > Villavicencio > Past weeks

Flag for Colombia Weather for the Past 2 Weeks in Villavicencio, Colombia

Now
54 °F

Passing clouds.


Feels Like: 54 °F
Forecast: 68 / 86 °F
Wind: 2 mph from North

Location: Bogota / Eldorado

Current Time: May 2, 2016 at 11:08:03 PM

Latest Report: May 2, 2016 at 10:00 PM


Visibility: N/A

Pressure: 30.41 "Hg

Humidity: 94%

Dew Point: 52 °F

Location of VillavicencioLocation

Historic Weather in Villavicencio — Graph

°F

Villavicencio Temperature Yesterday

Maximum temperature yesterday: 64 °F (at 2:00 PM)
Minimum temperature yesterday: 54 °F (at 4:00 AM)
Average temperature yesterday: 58 °F

High & Low Weather Summary for the Past Weeks

 TemperatureHumidityPressure
High86 °F (Apr 27, 1:00 PM)100% (Apr 19, 4:00 AM)30.43 "Hg (Apr 19, 4:00 AM)
Low45 °F (Apr 19, 5:00 AM)35% (Apr 27, 1:00 PM)29.84 "Hg (Apr 24, 6:00 AM)
Average59 °F77%30.33 "Hg
* Reported Apr 17 9:00 PM — May 2 9:00 PM, Villavicencio, Weather by CustomWeather, © 2016

Note: Actual official high and low records may vary slightly from our data, if they occured in-between our weather recording intervals... More about our weather records

Advertising

Villavicencio Weather History for the Previous 24 Hours

Scroll right to see more
 ConditionsComfort  
Time TempWeatherWind HumidityBarometerVisibility
9:00 PM
Mon, May 2
55 °FPartly cloudy.2 mph82%30.40 "HgN/A
8:00 PM57 °FPassing clouds.3 mph82%30.38 "HgN/A
7:00 PM57 °FPartly cloudy.3 mph88%30.36 "HgN/A
6:00 PM57 °FBroken clouds.6 mph82%30.33 "HgN/A
5:00 PM59 °FScattered showers. Partly sunny.8 mph82%30.32 "HgN/A
4:00 PM61 °FDrizzle. Partly sunny.15 mph72%30.30 "HgN/A
3:00 PM64 °FPartly sunny.16 mph68%30.29 "HgN/A
2:00 PM66 °FPartly sunny.14 mph60%30.30 "HgN/A
1:00 PM66 °FScattered clouds.7 mph56%30.33 "HgN/A
12:00 PM66 °FPartly sunny.7 mph49%30.37 "HgN/A
11:00 AM66 °FScattered clouds.9 mph46%30.39 "HgN/A
10:00 AM64 °FPartly sunny.9 mph49%30.39 "HgN/A
9:00 AM63 °FScattered clouds.5 mph64%30.39 "HgN/A
8:00 AM57 °FPassing clouds.5 mph82%30.38 "HgN/A
7:00 AM54 °FScattered clouds.2 mph94%30.36 "HgN/A
6:00 AM50 °FFog.2 mph94%30.33 "HgN/A
5:00 AM54 °FPartly cloudy.No wind94%30.32 "HgN/A
4:00 AM54 °FPartly cloudy.2 mph94%30.32 "HgN/A
3:00 AM54 °FPartly cloudy.3 mph94%30.31 "HgN/A
2:00 AM55 °FPartly cloudy.2 mph88%30.32 "HgN/A
1:00 AM57 °FPartly cloudy.2 mph82%30.34 "HgN/A
12:00 AM55 °FPartly cloudy.2 mph82%30.36 "HgN/A
11:00 PM
Sun, May 1
55 °FPartly cloudy.3 mph88%30.37 "HgN/A
Weather by CustomWeather, © 2016

See weather overviewHow to use our weather pages